Location: Chatou
(48.8898°N, 2.1586°E)
Time: 04:10:12
(UTC+00:00)

UNISAT 6 - Pass Details

Date: 13 December 2023
Orbit: 596 x 671 km, 97.7° (Epoch: 22 February)

Event Time Altitude Azimuth Distance (km) Brightness Sun altitude
Exits shadow 18:24:25 - 359° (N) 2,830 ? -23.5°
Reaches altitude 10° 18:26:55 10° 341° (NNW) 2,015 ? -23.9°
Maximum altitude 18:29:48 18° 300° (WNW) 1,555 ? -24.4°
Drops below altitude 10° 18:32:39 10° 258° (WSW) 1,976 ? -24.8°
Sets 18:35:23 0° 239° (WSW) 2,863 ? -25.3°
